Kuiper-00047

operational
NORAD ID: 64507 Int'l Des: 2025-134 Owner: KUIP Country: US Constellation: kuiper
LEOCIRCULAR

About Kuiper-00047

Description loading...

Live Position

Loading 3D Globe...

Upcoming Passes

Altitude History

Altitude vs Time

uPlot chart will show altitude changes over time

Two-Line Element Set

1 64507U 25134H 25344.99805461 .00006197 00000-0 78284-3 0 9992
2 64507 51.8976 246.8834 0008564 8.3749 351.7356 14.82958360 27194
Epoch: Dec 10, 2025 • Age: 12 hours

Current Status

Altitude 635.4 km
Velocity 7.54 km/s
Sub-Earth Point -33.77°S, 168.7°W
Launch Date Jun 23, 2025
Age 0.4 years
Type internet

Technical Details

Classification Payload
Mass 490.00 kg
Dry Mass 490.00 kg
Total Mass 490.00 kg
Length 1.80 m
Diameter 0.70 m
Span 5.00 m
Shape Box + 2 pan
Manufacturer KUIP
Bus Type Kuiper
Phase Status In Orbit
Owner/State KUIP/US

Large Constellations

Loading constellations...